SCP
0 0 0 0 0 0 0 0 0 0 0 0 0 0 0 0 0 0 0 0 0 0 0 0 0 0 0 0 0 0 0 0 0 0 0 0 0 0 0 0 0 0 0 0 0 0 0 0 0 0 0 0 0 -0
0 0 0 0 0 0 0 0 0 0 0 0 0 0 0 0 0 0 0 0 0 0 0 0 0 0 0 0 0 0 0 0 0 0 0 0 0 0 0 0 0 0 0 0 0 0 0 0 0 0 0 0 0 0
0 0 0 0 0 0 0 0 0 0 0 0 0 0 0 0 0 0 0 0 0 0 0 0 0 0 0 0 0 0 0 0 0 0 0 0 0 0 0 0 0 0 0 0 0 0 -0 -0 -0 0 0 0 0 0
0 0 0 0 0 0 0 0 0 0 0 0 0 0 0 0 0 0 0 0 0 0 0 0 0 0 0 0 0 0 0 0 0 0 0 0 0 0 0 0 0 0 0 0 -0 -0 -0 -0 -0 0 0 0 0 0
0 0 0 0 0 0 0 0 0 0 0 0 0 0 0 0 0 0 0 0 0 0 0 0 0 0 0 0 0 0 0 0 0 0 0 0 0 0 0 0 0 0 0 -0 -0 -0 0 0 -0 0 0 0 0 0
0 0 0 0 0 0 0 0 0 0 0 0 0 0 0 0 0 0 0 0 0 0 0 0 0 0 0 0 0 0 0 0 0 0 0 0 0 0 0 0 -0 -0 -0 -0 -0 0 0 -0 0 0 0 0 -0 -0
0 0 0 0 0 0 0 0 0 0 0 0 0 0 0 0 0 0 0 0 0 0 0 0 0 0 0 0 0 0 0 0 0 0 0 0 0 0 0 0 -0 -0 -0 -0 -0 -0 0 -0 -0 -0 -0 -0 -0 -0
0 0 0 0 0 0 0 0 0 0 0 0 0 0 0 0 0 0 0 0 0 0 0 0 0 0 0 0 0 0 0 0 0 0 0 0 0 0 0 -0 -0 0 0 -0 -0 -0 -0 -0 -0 -0 -0 -0 -0 -0
0 0 0 0 0 0 0 0 0 0 0 0 0 0 0 0 0 0 0 0 0 0 0 0 0 0 0 0 0 0 0 0 0 0 0 0 0 -0 0 0 0 -0 0 -0 0 -0 -0 -0 0 0 -0 -0 -0 -0
0 0 0 0 0 0 0 0 0 0 0 0 0 1 0 0 0 0 0 0 0 0 0 0 0 0 0 0 0 0 0 0 0 0 0 0 0 -0 0 0 0 0 0 0 -0 -0 0 -0 -0 -0 -0 -0 -0 -0
0 0 0 0 0 0 0 0 0 0 0 0 0 0 0 0 0 0 0 0 0 0 0 0 0 0 0 0 0 0 0 0 0 0 0 0 -0 0 0 0 0 0 0 0 0 0 0 0 0 0 0 0 -0 -0
0 0 0 0 0 0 0 0 0 0 0 0 0 0 0 0 0 0 0 0 0 0 0 0 0 0 0 0 0 0 0 0 0 0 0 0 0 0 0 0 0 0 0 0 0 0 0 0 0 0 0 0 0 0
0 0 0 0 0 0 0 0 0 0 0 0 0 0 0 0 0 0 0 0 0 0 0 0 0 0 0 0 0 0 0 0 0 0 0 -0 0 0 0 0 0 0 0 0 0 0 0 0 0 0 0 0 0 0
0 0 0 0 0 0 0 0 0 0 0 0 0 0 0 0 0 0 0 0 0 0 0 0 0 0 0 0 0 0 0 0 0 0 0 0 -0 0 0 0 -0 -0 0 0 0 0 0 0 0 0 0 0 0 0
0 0 0 0 0 0 0 0 0 0 0 0 0 0 0 0 0 0 0 0 0 0 0 0 0 0 0 0 0 0 0 0 0 0 0 0 0 0 0 0 0 0 0 0 0 0 0 0 0 0 0 0 0 0
0 0 0 0 0 0 0 0 0 0 0 0 0 0 0 0 0 0 0 0 0 0 0 0 0 0 0 0 0 0 0 0 0 0 0 0 0 0 -0 0 0 0 0 0 0 0 0 0 0 0 0 0 0 0
0 0 0 0 0 0 0 0 0 0 0 0 0 0 0 0 0 0 0 0 0 0 0 0 0 0 0 0 0 0 0 0 0 0 0 0 0 0 0 -0 -0 -0 -0 -0 0 0 0 0 0 0 0 0 0 0
0 0 0 0 0 0 0 0 0 0 0 0 0 0 0 0 0 0 0 0 0 0 0 0 0 0 0 0 0 0 0 0 0 0 0 0 0 0 0 -0 0 0 0 0 0 0 0 0 0 0 0 0 0 0
0 0 0 0 0 0 0 0 0 0 0 0 0 0 0 0 0 0 0 0 0 0 0 0 0 0 0 0 0 0 0 0 0 0 0 0 0 0 0 0 0 0 -0 0 0 0 0 0 0 0 0 0 0 0
0 0 0 0 0 0 0 0 0 0 0 0 0 0 0 0 0 0 0 0 0 0 0 0 0 0 0 0 0 0 0 0 0 0 0 0 0 0 0 0 0 0 0 0 0 0 0 0 0 0 0 0 0 0
0 0 0 0 0 0 0 0 0 0 0 0 0 0 0 0 0 0 0 0 0 0 0 0 0 0 0 0 0 0 0 0 0 0 0 0 0 0 0 0 0 0 0 0 0 0 0 0 0 0 0 0 0 0
0 0 0 0 0 0 0 0 0 0 0 0 0 0 0 0 0 0 0 0 0 0 0 0 0 0 0 0 0 0 0 0 0 0 0 0 0 0 0 0 0 0 0 0 0 0 0 0 0 0 0 0 0 0
0 0 0 0 0 0 0 0 0 0 0 0 0 0 0 0 0 0 0 0 0 0 0 0 0 0 0 0 0 0 0 0 0 0 0 0 0 0 0 0 0 0 0 0 0 0 0 0 0 0 0 0 0 0
0 0 0 0 0 0 0 0 0 -0 -0 0 0 0 0 0 0 0 0 0 0 0 0 0 0 0 0 0 0 0 0 0 0 0 0 0 0 0 0 0 0 0 0 0 0 0 0 0 0 0 0 0 0 0
0 0 0 0 0 0 0 0 0 -0 -0 -0 0 0 0 0 0 0 0 0 0 0 0 0 0 0 0 0 0 0 0 0 0 0 0 0 0 0 0 0 0 0 0 0 0 0 0 0 0 0 0 0 0 0
0 0 0 0 0 0 0 0 0 -0 -0 -0 -0 0 0 0 0 0 0 0 0 0 0 0 0 0 0 0 0 0 0 0 0 0 0 0 0 0 0 0 0 0 0 0 0 0 0 0 0 0 0 0 0 0
0 0 0 0 0 0 0 0 0 0 -0 -0 0 0 0 0 0 0 0 0 0 0 0 0 0 0 0 0 0 0 0 0 0 0 0 0 0 0 0 0 0 0 0 0 0 0 0 0 0 0 0 0 0 0
0 0 0 0 0 0 0 0 -0 0 0 0 0 0 0 0 0 0 0 0 0 0 0 0 0 0 0 0 0 0 0 0 0 0 0 0 0 0 0 0 0 0 0 0 0 0 0 0 0 0 0 0 0 0
0 0 0 0 0 0 0 0 0 0 0 0 0 0 0 0 0 0 0 0 0 0 0 0 0 0 0 0 0 0 0 0 0 0 0 0 0 0 0 0 0 0 0 0 0 0 0 0 0 0 0 0 0 0
0 0 0 0 -0 0 0 0 0 0 0 0 0 0 0 0 0 0 0 0 0 0 0 0 0 0 0 0 0 0 0 0 0 0 0 0 0 0 0 0 0 0 0 0 0 0 0 0 0 0 0 0 0 0
0 0 -0 -0 0 0 0 0 0 0 0 0 0 0 0 0 0 0 0 0 0 0 0 0 0 0 0 0 0 0 0 0 0 0 0 0 0 0 0 0 0 0 0 0 0 0 0 0 0 0 0 0 0 0
0 -0 0 0 0 0 0 0 0 0 0 0 0 0 0 0 0 0 0 0 0 0 0 0 0 0 0 0 0 0 0 0 0 0 0 0 0 0 0 0 0 0 0 0 0 0 0 0 0 0 0 0 0 0
0 0 0 0 0 0 0 0 0 0 0 0 0 0 0 0 0 0 0 0 0 0 0 0 0 0 0 0 0 0 0 0 0 0 0 0 0 0 0 0 0 0 0 0 0 0 0 0 0 0 0 0 0 0
Wind_Speed_500mb
100 105 103 104 100 93 92 87 84 79 77 67 72 83 80 79 76 74 68 61 53 33 44 34 26 31 17 11 5 5 4 2 4 8 6 5 8 4 5 7 10 16 12 10 9 12 23 26 8 15 4 1 29 45
105 103 105 109 100 100 96 96 90 86 83 76 72 86 82 82 80 74 67 64 60 47 26 23 28 34 44 41 37 19 8 9 14 4 4 2 8 6 6 8 9 10 15 7 20 14 27 17 31 27 20 47 31 36
84 93 105 115 105 97 100 99 96 92 87 83 75 88 85 83 79 78 75 62 63 46 49 57 61 57 54 54 49 28 24 29 19 16 11 2 12 8 9 14 6 13 21 11 3 12 38 63 73 64 58 31 24 22
95 103 98 100 84 99 98 105 101 95 90 88 85 89 93 89 82 81 83 79 64 21 12 21 30 34 34 34 41 53 58 27 22 28 12 8 6 20 7 14 14 21 17 13 25 39 45 73 70 66 56 30 32 8
82 93 105 106 99 94 100 107 110 101 98 94 90 84 100 93 87 84 84 88 81 61 9 10 19 24 25 35 38 40 50 49 25 14 12 7 8 8 10 10 23 29 19 23 17 27 9 11 11 23 20 33 23 13
80 73 68 96 118 94 99 93 100 105 108 101 94 88 95 92 80 83 58 93 87 82 16 6 13 21 26 33 32 32 40 47 35 13 8 13 12 8 8 10 24 48 52 56 18 30 32 36 34 17 10 23 22 27
91 84 72 70 80 125 91 95 104 117 111 106 100 88 84 99 88 83 19 24 74 79 13 7 8 8 20 17 18 25 29 21 22 11 14 14 12 18 7 11 29 37 56 78 73 51 33 46 18 13 14 25 27 30
53 75 90 70 75 94 137 89 113 107 113 105 103 91 77 91 80 69 54 38 57 69 17 7 3 8 25 15 13 18 14 21 16 12 7 9 10 14 14 59 57 48 44 44 64 74 65 28 22 34 22 26 35 31
54 53 49 90 77 66 85 137 105 116 108 107 102 82 69 76 67 60 50 46 60 30 19 12 13 7 30 11 12 14 14 7 10 8 9 13 9 16 33 47 58 61 39 22 21 56 68 76 61 38 26 31 41 41
53 53 56 52 83 79 73 82 123 95 112 111 96 65 27 53 67 60 44 51 32 29 20 13 26 9 21 12 8 12 8 5 6 8 11 9 13 67 77 88 98 77 70 55 50 47 41 71 75 79 68 41 36 47
54 55 54 52 71 76 66 76 121 114 121 91 49 35 40 75 53 31 19 18 21 9 24 30 52 16 26 9 7 17 7 5 6 5 8 7 12 14 57 72 65 66 74 77 80 83 56 41 49 67 70 60 44 42
58 54 56 56 55 78 68 54 101 133 102 107 81 64 78 30 16 14 14 11 12 17 24 23 34 38 25 17 10 15 7 7 12 12 4 10 15 41 55 50 28 28 36 48 52 64 75 64 45 38 55 63 55 39
56 56 56 55 57 58 84 52 61 113 125 100 44 29 23 17 12 26 25 13 15 20 23 37 19 34 16 14 10 7 12 11 14 8 9 16 26 38 37 46 46 39 40 37 40 42 49 71 55 46 53 58 59 52
57 58 56 56 55 62 58 75 37 102 119 27 23 23 20 16 18 16 41 15 19 38 59 58 26 14 13 9 7 11 4 6 8 7 17 10 41 50 29 27 29 27 26 33 34 34 39 58 58 45 44 57 61 62
51 53 55 58 56 61 61 49 40 128 54 20 19 17 17 10 10 29 42 49 36 84 79 34 19 15 7 9 7 10 7 12 13 14 8 25 23 17 19 28 24 24 26 30 29 31 30 54 48 34 43 51 54 51
45 43 53 50 57 55 59 53 60 97 25 31 21 12 27 11 2 27 55 41 70 78 65 20 9 9 9 9 11 22 13 16 9 11 49 36 21 25 23 20 23 24 21 18 23 27 30 56 52 28 36 38 38 35
41 42 48 45 43 48 55 57 48 32 18 12 8 42 75 73 27 32 47 60 97 87 16 9 14 16 12 8 11 14 13 8 23 32 30 23 20 18 22 15 9 14 16 17 21 28 50 49 57 45 33 36 38 41
44 40 38 35 41 45 48 41 21 21 15 12 13 54 90 73 55 69 43 96 68 63 38 13 23 12 16 18 11 10 31 47 39 37 27 25 18 19 25 14 10 2 1 10 24 53 56 48 46 43 40 48 41 32
41 39 37 39 34 36 15 14 17 5 5 29 27 70 74 50 78 87 76 105 57 77 46 25 10 12 12 7 10 30 41 47 42 49 53 33 22 19 19 26 28 27 26 34 43 45 43 41 46 51 46 36 25 23
34 36 37 36 42 15 8 10 21 8 5 19 45 52 54 55 51 65 84 93 61 45 10 11 12 16 28 32 33 31 32 33 34 22 22 23 29 20 37 46 50 57 59 55 49 47 46 45 38 33 23 19 13 11
29 40 33 37 30 19 7 10 6 19 18 8 56 58 17 45 49 42 50 71 29 13 11 33 66 54 48 30 47 39 30 26 12 4 6 9 20 20 43 45 47 51 55 54 47 38 30 30 32 36 27 19 19 24
22 34 25 35 12 7 10 11 10 24 11 7 28 31 10 12 13 32 54 27 21 48 55 64 76 74 60 50 46 42 53 51 50 35 17 21 32 27 36 49 53 51 48 41 36 33 27 28 31 27 21 18 25 37
25 26 16 12 10 17 8 16 5 4 7 4 24 11 8 7 23 55 9 26 18 63 69 64 62 57 55 58 55 45 38 36 29 24 33 30 26 32 39 51 58 45 40 30 27 37 37 39 39 31 40 42 47 52
24 10 3 2 4 6 3 3 9 8 6 2 19 13 11 7 46 4 10 13 13 30 57 47 37 39 42 45 56 58 60 60 59 39 25 23 23 23 28 44 48 43 38 40 40 37 35 37 42 46 50 55 59 60
13 23 18 16 21 15 14 13 16 6 5 5 4 2 8 18 6 6 6 14 17 21 8 22 37 27 30 42 43 52 57 63 59 57 49 44 35 33 35 36 40 42 42 46 49 56 58 56 57 59 62 64 61 55
17 25 16 16 11 12 10 11 16 12 10 14 13 13 15 2 9 9 9 30 27 29 32 18 8 20 21 25 32 38 44 34 36 43 38 37 35 35 35 35 36 37 43 48 46 45 44 47 52 55 54 52 49 47
15 11 17 25 13 12 9 10 13 7 10 15 12 19 13 13 12 8 28 39 40 35 25 16 10 10 16 16 23 30 33 31 37 38 35 35 35 37 37 36 35 35 37 40 43 45 48 49 45 44 43 41 40 39
15 21 14 30 14 25 8 9 13 14 10 17 8 16 9 10 10 21 24 47 36 26 18 14 8 6 2 5 8 15 17 23 28 31 33 33 35 35 34 33 35 38 37 35 34 32 31 31 31 33 34 34 32 32
14 39 23 9 11 13 11 10 11 14 22 8 5 6 7 9 27 34 43 38 35 31 30 27 21 18 17 16 13 11 13 23 29 33 34 32 26 21 23 24 23 23 20 18 18 19 21 23 24 25 26 26 26 25
22 43 16 12 8 10 16 17 8 29 49 46 37 40 35 33 61 62 56 52 54 55 50 44 36 29 29 26 28 27 22 17 15 20 24 23 22 18 14 12 11 10 9 10 12 13 14 16 17 19 22 25 26 27
35 33 21 17 11 23 17 23 37 44 42 40 31 27 17 9 29 78 80 63 57 55 51 50 47 42 36 30 25 23 28 23 20 18 17 14 13 11 10 7 5 5 6 6 7 7 7 10 13 14 17 19 21 22
34 23 12 11 7 19 28 44 49 46 36 35 36 41 30 18 23 55 82 77 62 65 61 52 47 44 36 30 28 28 26 22 19 16 14 12 9 8 7 6 5 5 5 6 9 11 13 13 16 18 20 22 23 25
15 21 17 12 17 14 21 15 9 7 29 49 49 45 34 14 16 44 65 71 66 61 51 40 35 31 30 29 30 29 28 26 25 25 23 20 19 19 18 18 18 18 17 19 22 24 25 25 27 28 29 30 30 30
Wind_Direction_500mb
253 252 250 246 241 236 232 230 230 229 228 220 216 211 210 215 218 216 221 227 222 231 254 253 244 222 210 202 206 181 288 159 110 199 202 223 231 226 262 254 199 192 182 203 200 226 260 222 122 206 217 264 318 315
254 252 255 248 246 240 234 229 227 227 224 221 216 210 209 211 214 218 221 224 226 227 245 254 260 260 254 254 252 220 238 163 197 139 219 167 227 214 246 278 197 237 211 216 208 220 253 244 257 236 303 307 309 307
248 248 250 247 248 246 240 233 225 225 224 221 215 209 208 211 213 217 220 218 214 226 253 255 256 269 262 250 242 234 239 228 222 210 176 242 247 170 219 234 264 236 222 244 314 246 248 262 266 272 284 305 317 323
244 245 250 244 245 246 246 238 228 221 223 224 215 211 206 214 213 217 217 219 219 206 230 242 253 249 257 235 237 236 238 228 224 212 206 225 234 201 232 265 238 242 166 229 259 265 268 275 271 266 268 273 317 327
233 236 237 245 246 241 240 241 231 221 216 222 221 214 208 210 214 219 222 224 223 208 211 211 227 238 219 243 239 248 228 222 203 194 207 227 232 244 242 262 253 205 216 209 226 226 235 260 308 341 243 237 256 225
233 232 236 234 239 243 240 239 236 229 219 212 220 216 209 206 211 203 210 221 226 227 240 233 236 231 227 226 228 222 220 219 213 200 206 232 214 212 264 253 246 223 220 218 234 239 244 273 284 299 216 198 208 207
244 232 229 231 230 230 240 238 241 231 218 211 212 213 210 204 203 194 203 209 215 218 221 260 231 196 214 196 193 203 201 207 206 219 231 224 198 203 246 251 249 249 242 234 235 243 266 264 276 247 226 193 196 204
239 240 227 225 231 226 230 236 236 231 224 216 209 207 207 204 208 218 216 148 171 186 191 226 201 186 170 160 169 190 188 200 213 232 231 203 197 219 252 240 252 257 260 254 243 240 236 248 248 238 243 211 200 198
239 232 232 228 228 220 222 230 234 229 223 216 205 201 194 203 209 208 197 173 175 178 190 188 164 194 166 144 140 155 171 192 225 240 231 181 193 224 235 255 250 247 231 243 252 242 240 237 232 231 241 235 218 203
239 237 232 226 221 222 214 228 227 223 219 205 182 176 188 193 198 167 151 171 183 211 223 194 174 147 155 151 145 135 180 218 230 226 168 228 251 249 252 254 263 260 259 256 247 246 237 235 233 232 234 238 240 222
239 237 235 232 223 218 212 220 219 214 195 170 172 175 165 160 155 169 165 175 185 217 210 178 185 137 172 145 157 199 178 179 243 192 211 250 264 227 262 262 270 267 260 259 254 253 254 252 252 235 227 222 223 218
239 236 235 230 229 222 212 203 210 196 174 174 170 146 143 153 159 154 175 185 199 206 174 151 169 176 147 153 133 177 188 178 244 138 205 261 244 250 264 272 268 281 263 258 254 246 237 238 243 242 228 218 215 215
237 234 232 231 227 225 223 208 202 188 173 153 152 160 163 171 155 175 193 205 191 158 162 150 131 156 129 153 111 162 194 217 124 192 237 240 271 247 258 273 291 278 269 260 254 245 239 229 232 228 217 209 212 212
234 230 231 230 227 220 219 209 184 187 166 162 154 149 187 170 212 196 207 149 141 144 146 137 117 130 134 127 146 189 141 146 203 223 238 253 258 282 271 274 291 297 263 259 251 239 240 222 218 222 220 208 205 208
235 232 225 227 225 218 214 217 206 185 185 163 158 174 180 174 132 147 146 143 147 150 141 127 88 117 126 146 177 110 148 236 218 228 230 255 288 275 251 271 283 299 280 268 241 240 246 198 198 215 213 206 208 213
230 231 230 225 218 216 211 212 196 188 213 180 177 132 153 103 161 157 150 140 150 151 142 131 131 138 175 152 154 207 185 214 231 220 244 260 282 270 268 270 285 294 288 264 240 232 213 187 181 167 162 172 182 186
221 229 231 233 224 203 201 206 199 207 216 196 146 169 181 202 156 159 152 150 156 152 162 136 154 181 115 185 220 191 208 217 228 236 251 266 269 271 272 269 270 269 266 259 235 202 171 175 183 188 191 175 167 160
221 224 223 220 221 214 211 215 197 213 209 142 157 174 187 202 169 165 161 157 160 176 160 161 130 181 175 190 221 216 218 228 241 261 266 243 254 262 274 213 140 204 219 151 153 154 157 163 173 175 168 161 163 169
218 226 221 214 205 205 216 231 213 265 152 154 162 188 198 187 189 176 167 172 173 175 153 153 153 194 214 193 197 210 217 221 235 250 255 242 247 262 208 158 136 129 130 136 135 148 152 154 150 154 160 163 171 186
206 216 210 205 207 205 240 242 189 225 264 177 176 194 191 189 161 166 165 173 170 163 166 187 209 210 203 192 183 206 216 231 236 246 261 253 239 231 178 157 143 129 126 124 124 128 138 148 157 159 167 189 207 256
201 196 197 196 205 225 294 252 203 199 219 249 177 178 128 145 145 159 171 173 170 198 210 204 216 219 219 218 224 220 193 181 193 9 359 222 203 190 177 167 161 156 154 153 151 151 168 178 178 188 195 219 246 264
175 174 178 192 179 205 256 274 294 332 296 180 170 150 122 153 147 158 162 180 210 200 209 211 217 219 224 225 222 225 231 243 258 260 225 191 193 192 195 199 185 183 180 176 177 181 187 187 187 205 226 255 276 275
150 156 148 155 198 203 245 227 219 110 294 247 160 123 135 139 149 139 152 183 197 209 215 223 229 235 233 227 222 219 218 222 224 228 217 220 217 222 227 216 206 199 193 207 243 246 230 213 204 234 252 259 265 269
143 111 181 112 359 198 298 311 211 156 252 206 205 188 129 123 152 159 141 155 178 202 212 221 231 240 236 230 224 226 231 237 244 241 232 232 212 206 215 224 223 234 253 259 244 229 232 248 254 251 250 252 258 258
71 11 23 2 11 9 22 1 348 7 174 21 352 215 127 150 130 148 106 4 24 37 34 214 213 211 224 226 230 228 228 232 235 238 237 235 234 226 216 218 222 228 242 249 243 239 248 252 252 248 249 253 254 250
66 21 26 358 5 25 346 13 359 345 8 2 14 328 321 11 75 45 11 343 342 354 359 357 299 209 196 210 210 210 214 218 217 222 227 235 236 240 243 245 247 250 249 247 247 247 250 253 254 252 256 258 256 252
40 345 350 21 354 355 33 18 356 13 33 20 347 350 0 43 47 360 339 358 341 344 350 348 327 272 237 225 215 221 227 223 224 229 228 234 240 245 242 241 239 242 236 236 239 247 252 255 257 257 255 253 252 251
24 29 1 322 21 28 54 24 11 10 7 347 347 30 56 34 347 326 331 349 359 9 22 33 44 53 134 215 219 215 207 199 199 200 205 214 220 222 227 231 232 234 239 246 248 248 248 250 253 257 258 255 250 245
7 342 339 4 39 47 37 25 12 344 318 348 62 64 80 46 14 1 9 19 37 46 56 63 71 81 86 94 103 124 160 174 174 179 186 191 200 207 211 222 234 242 246 250 249 248 252 256 255 251 245 240 234 227
333 350 352 16 61 60 20 55 65 59 62 75 95 113 99 71 42 39 40 44 45 46 48 49 55 69 71 76 79 84 93 113 157 188 198 198 197 202 205 208 213 223 241 256 263 266 259 253 243 227 219 212 208 206
351 354 41 50 64 60 84 77 66 62 59 55 60 63 67 25 36 26 28 35 42 49 52 50 52 53 57 58 64 74 73 75 87 103 123 140 150 157 161 166 181 216 237 241 234 225 216 208 198 193 188 188 185 185
350 359 351 26 50 99 71 66 68 69 54 48 35 34 42 40 32 15 14 21 35 37 37 35 36 39 46 50 57 63 70 76 77 82 96 108 120 126 123 123 134 143 146 147 142 141 141 146 150 150 152 151 150 153
332 1 14 17 2 4 359 359 53 69 47 48 42 28 24 44 50 5 15 28 27 26 24 30 35 42 48 55 61 63 65 70 84 89 89 90 93 97 101 102 102 103 108 113 114 113 115 119 122 123 126 129 133 136
Wind_Speed_850mb
100 105 103 104 100 93 92 87 84 79 77 67 72 83 80 79 76 74 68 61 53 33 44 34 26 31 17 11 5 5 4 2 4 8 6 5 8 4 5 7 10 16 12 10 9 12 23 26 8 15 4 1 29 45
105 103 105 109 100 100 96 96 90 86 83 76 72 86 82 82 80 74 67 64 60 47 26 23 28 34 44 41 37 19 8 9 14 4 4 2 8 6 6 8 9 10 15 7 20 14 27 17 31 27 20 47 31 36
84 93 105 115 105 97 100 99 96 92 87 83 75 88 85 83 79 78 75 62 63 46 49 57 61 57 54 54 49 28 24 29 19 16 11 2 12 8 9 14 6 13 21 11 3 12 38 63 73 64 58 31 24 22
95 103 98 100 84 99 98 105 101 95 90 88 85 89 93 89 82 81 83 79 64 21 12 21 30 34 34 34 41 53 58 27 22 28 12 8 6 20 7 14 14 21 17 13 25 39 45 73 70 66 56 30 32 8
82 93 105 106 99 94 100 107 110 101 98 94 90 84 100 93 87 84 84 88 81 61 9 10 19 24 25 35 38 40 50 49 25 14 12 7 8 8 10 10 23 29 19 23 17 27 9 11 11 23 20 33 23 13
80 73 68 96 118 94 99 93 100 105 108 101 94 88 95 92 80 83 58 93 87 82 16 6 13 21 26 33 32 32 40 47 35 13 8 13 12 8 8 10 24 48 52 56 18 30 32 36 34 17 10 23 22 27
91 84 72 70 80 125 91 95 104 117 111 106 100 88 84 99 88 83 19 24 74 79 13 7 8 8 20 17 18 25 29 21 22 11 14 14 12 18 7 11 29 37 56 78 73 51 33 46 18 13 14 25 27 30
53 75 90 70 75 94 137 89 113 107 113 105 103 91 77 91 80 69 54 38 57 69 17 7 3 8 25 15 13 18 14 21 16 12 7 9 10 14 14 59 57 48 44 44 64 74 65 28 22 34 22 26 35 31
54 53 49 90 77 66 85 137 105 116 108 107 102 82 69 76 67 60 50 46 60 30 19 12 13 7 30 11 12 14 14 7 10 8 9 13 9 16 33 47 58 61 39 22 21 56 68 76 61 38 26 31 41 41
53 53 56 52 83 79 73 82 123 95 112 111 96 65 27 53 67 60 44 51 32 29 20 13 26 9 21 12 8 12 8 5 6 8 11 9 13 67 77 88 98 77 70 55 50 47 41 71 75 79 68 41 36 47
54 55 54 52 71 76 66 76 121 114 121 91 49 35 40 75 53 31 19 18 21 9 24 30 52 16 26 9 7 17 7 5 6 5 8 7 12 14 57 72 65 66 74 77 80 83 56 41 49 67 70 60 44 42
58 54 56 56 55 78 68 54 101 133 102 107 81 64 78 30 16 14 14 11 12 17 24 23 34 38 25 17 10 15 7 7 12 12 4 10 15 41 55 50 28 28 36 48 52 64 75 64 45 38 55 63 55 39
56 56 56 55 57 58 84 52 61 113 125 100 44 29 23 17 12 26 25 13 15 20 23 37 19 34 16 14 10 7 12 11 14 8 9 16 26 38 37 46 46 39 40 37 40 42 49 71 55 46 53 58 59 52
57 58 56 56 55 62 58 75 37 102 119 27 23 23 20 16 18 16 41 15 19 38 59 58 26 14 13 9 7 11 4 6 8 7 17 10 41 50 29 27 29 27 26 33 34 34 39 58 58 45 44 57 61 62
51 53 55 58 56 61 61 49 40 128 54 20 19 17 17 10 10 29 42 49 36 84 79 34 19 15 7 9 7 10 7 12 13 14 8 25 23 17 19 28 24 24 26 30 29 31 30 54 48 34 43 51 54 51
45 43 53 50 57 55 59 53 60 97 25 31 21 12 27 11 2 27 55 41 70 78 65 20 9 9 9 9 11 22 13 16 9 11 49 36 21 25 23 20 23 24 21 18 23 27 30 56 52 28 36 38 38 35
41 42 48 45 43 48 55 57 48 32 18 12 8 42 75 73 27 32 47 60 97 87 16 9 14 16 12 8 11 14 13 8 23 32 30 23 20 18 22 15 9 14 16 17 21 28 50 49 57 45 33 36 38 41
44 40 38 35 41 45 48 41 21 21 15 12 13 54 90 73 55 69 43 96 68 63 38 13 23 12 16 18 11 10 31 47 39 37 27 25 18 19 25 14 10 2 1 10 24 53 56 48 46 43 40 48 41 32
41 39 37 39 34 36 15 14 17 5 5 29 27 70 74 50 78 87 76 105 57 77 46 25 10 12 12 7 10 30 41 47 42 49 53 33 22 19 19 26 28 27 26 34 43 45 43 41 46 51 46 36 25 23
34 36 37 36 42 15 8 10 21 8 5 19 45 52 54 55 51 65 84 93 61 45 10 11 12 16 28 32 33 31 32 33 34 22 22 23 29 20 37 46 50 57 59 55 49 47 46 45 38 33 23 19 13 11
29 40 33 37 30 19 7 10 6 19 18 8 56 58 17 45 49 42 50 71 29 13 11 33 66 54 48 30 47 39 30 26 12 4 6 9 20 20 43 45 47 51 55 54 47 38 30 30 32 36 27 19 19 24
22 34 25 35 12 7 10 11 10 24 11 7 28 31 10 12 13 32 54 27 21 48 55 64 76 74 60 50 46 42 53 51 50 35 17 21 32 27 36 49 53 51 48 41 36 33 27 28 31 27 21 18 25 37
25 26 16 12 10 17 8 16 5 4 7 4 24 11 8 7 23 55 9 26 18 63 69 64 62 57 55 58 55 45 38 36 29 24 33 30 26 32 39 51 58 45 40 30 27 37 37 39 39 31 40 42 47 52
24 10 3 2 4 6 3 3 9 8 6 2 19 13 11 7 46 4 10 13 13 30 57 47 37 39 42 45 56 58 60 60 59 39 25 23 23 23 28 44 48 43 38 40 40 37 35 37 42 46 50 55 59 60
13 23 18 16 21 15 14 13 16 6 5 5 4 2 8 18 6 6 6 14 17 21 8 22 37 27 30 42 43 52 57 63 59 57 49 44 35 33 35 36 40 42 42 46 49 56 58 56 57 59 62 64 61 55
17 25 16 16 11 12 10 11 16 12 10 14 13 13 15 2 9 9 9 30 27 29 32 18 8 20 21 25 32 38 44 34 36 43 38 37 35 35 35 35 36 37 43 48 46 45 44 47 52 55 54 52 49 47
15 11 17 25 13 12 9 10 13 7 10 15 12 19 13 13 12 8 28 39 40 35 25 16 10 10 16 16 23 30 33 31 37 38 35 35 35 37 37 36 35 35 37 40 43 45 48 49 45 44 43 41 40 39
15 21 14 30 14 25 8 9 13 14 10 17 8 16 9 10 10 21 24 47 36 26 18 14 8 6 2 5 8 15 17 23 28 31 33 33 35 35 34 33 35 38 37 35 34 32 31 31 31 33 34 34 32 32
14 39 23 9 11 13 11 10 11 14 22 8 5 6 7 9 27 34 43 38 35 31 30 27 21 18 17 16 13 11 13 23 29 33 34 32 26 21 23 24 23 23 20 18 18 19 21 23 24 25 26 26 26 25
22 43 16 12 8 10 16 17 8 29 49 46 37 40 35 33 61 62 56 52 54 55 50 44 36 29 29 26 28 27 22 17 15 20 24 23 22 18 14 12 11 10 9 10 12 13 14 16 17 19 22 25 26 27
35 33 21 17 11 23 17 23 37 44 42 40 31 27 17 9 29 78 80 63 57 55 51 50 47 42 36 30 25 23 28 23 20 18 17 14 13 11 10 7 5 5 6 6 7 7 7 10 13 14 17 19 21 22
34 23 12 11 7 19 28 44 49 46 36 35 36 41 30 18 23 55 82 77 62 65 61 52 47 44 36 30 28 28 26 22 19 16 14 12 9 8 7 6 5 5 5 6 9 11 13 13 16 18 20 22 23 25
15 21 17 12 17 14 21 15 9 7 29 49 49 45 34 14 16 44 65 71 66 61 51 40 35 31 30 29 30 29 28 26 25 25 23 20 19 19 18 18 18 18 17 19 22 24 25 25 27 28 29 30 30 30
Wind_Direction_850mb
253 252 250 246 241 236 232 230 230 229 228 220 216 211 210 215 218 216 221 227 222 231 254 253 244 222 210 202 206 181 288 159 110 199 202 223 231 226 262 254 199 192 182 203 200 226 260 222 122 206 217 264 318 315
254 252 255 248 246 240 234 229 227 227 224 221 216 210 209 211 214 218 221 224 226 227 245 254 260 260 254 254 252 220 238 163 197 139 219 167 227 214 246 278 197 237 211 216 208 220 253 244 257 236 303 307 309 307
248 248 250 247 248 246 240 233 225 225 224 221 215 209 208 211 213 217 220 218 214 226 253 255 256 269 262 250 242 234 239 228 222 210 176 242 247 170 219 234 264 236 222 244 314 246 248 262 266 272 284 305 317 323
244 245 250 244 245 246 246 238 228 221 223 224 215 211 206 214 213 217 217 219 219 206 230 242 253 249 257 235 237 236 238 228 224 212 206 225 234 201 232 265 238 242 166 229 259 265 268 275 271 266 268 273 317 327
233 236 237 245 246 241 240 241 231 221 216 222 221 214 208 210 214 219 222 224 223 208 211 211 227 238 219 243 239 248 228 222 203 194 207 227 232 244 242 262 253 205 216 209 226 226 235 260 308 341 243 237 256 225
233 232 236 234 239 243 240 239 236 229 219 212 220 216 209 206 211 203 210 221 226 227 240 233 236 231 227 226 228 222 220 219 213 200 206 232 214 212 264 253 246 223 220 218 234 239 244 273 284 299 216 198 208 207
244 232 229 231 230 230 240 238 241 231 218 211 212 213 210 204 203 194 203 209 215 218 221 260 231 196 214 196 193 203 201 207 206 219 231 224 198 203 246 251 249 249 242 234 235 243 266 264 276 247 226 193 196 204
239 240 227 225 231 226 230 236 236 231 224 216 209 207 207 204 208 218 216 148 171 186 191 226 201 186 170 160 169 190 188 200 213 232 231 203 197 219 252 240 252 257 260 254 243 240 236 248 248 238 243 211 200 198
239 232 232 228 228 220 222 230 234 229 223 216 205 201 194 203 209 208 197 173 175 178 190 188 164 194 166 144 140 155 171 192 225 240 231 181 193 224 235 255 250 247 231 243 252 242 240 237 232 231 241 235 218 203
239 237 232 226 221 222 214 228 227 223 219 205 182 176 188 193 198 167 151 171 183 211 223 194 174 147 155 151 145 135 180 218 230 226 168 228 251 249 252 254 263 260 259 256 247 246 237 235 233 232 234 238 240 222
239 237 235 232 223 218 212 220 219 214 195 170 172 175 165 160 155 169 165 175 185 217 210 178 185 137 172 145 157 199 178 179 243 192 211 250 264 227 262 262 270 267 260 259 254 253 254 252 252 235 227 222 223 218
239 236 235 230 229 222 212 203 210 196 174 174 170 146 143 153 159 154 175 185 199 206 174 151 169 176 147 153 133 177 188 178 244 138 205 261 244 250 264 272 268 281 263 258 254 246 237 238 243 242 228 218 215 215
237 234 232 231 227 225 223 208 202 188 173 153 152 160 163 171 155 175 193 205 191 158 162 150 131 156 129 153 111 162 194 217 124 192 237 240 271 247 258 273 291 278 269 260 254 245 239 229 232 228 217 209 212 212
234 230 231 230 227 220 219 209 184 187 166 162 154 149 187 170 212 196 207 149 141 144 146 137 117 130 134 127 146 189 141 146 203 223 238 253 258 282 271 274 291 297 263 259 251 239 240 222 218 222 220 208 205 208
235 232 225 227 225 218 214 217 206 185 185 163 158 174 180 174 132 147 146 143 147 150 141 127 88 117 126 146 177 110 148 236 218 228 230 255 288 275 251 271 283 299 280 268 241 240 246 198 198 215 213 206 208 213
230 231 230 225 218 216 211 212 196 188 213 180 177 132 153 103 161 157 150 140 150 151 142 131 131 138 175 152 154 207 185 214 231 220 244 260 282 270 268 270 285 294 288 264 240 232 213 187 181 167 162 172 182 186
221 229 231 233 224 203 201 206 199 207 216 196 146 169 181 202 156 159 152 150 156 152 162 136 154 181 115 185 220 191 208 217 228 236 251 266 269 271 272 269 270 269 266 259 235 202 171 175 183 188 191 175 167 160
221 224 223 220 221 214 211 215 197 213 209 142 157 174 187 202 169 165 161 157 160 176 160 161 130 181 175 190 221 216 218 228 241 261 266 243 254 262 274 213 140 204 219 151 153 154 157 163 173 175 168 161 163 169
218 226 221 214 205 205 216 231 213 265 152 154 162 188 198 187 189 176 167 172 173 175 153 153 153 194 214 193 197 210 217 221 235 250 255 242 247 262 208 158 136 129 130 136 135 148 152 154 150 154 160 163 171 186
206 216 210 205 207 205 240 242 189 225 264 177 176 194 191 189 161 166 165 173 170 163 166 187 209 210 203 192 183 206 216 231 236 246 261 253 239 231 178 157 143 129 126 124 124 128 138 148 157 159 167 189 207 256
201 196 197 196 205 225 294 252 203 199 219 249 177 178 128 145 145 159 171 173 170 198 210 204 216 219 219 218 224 220 193 181 193 9 359 222 203 190 177 167 161 156 154 153 151 151 168 178 178 188 195 219 246 264
175 174 178 192 179 205 256 274 294 332 296 180 170 150 122 153 147 158 162 180 210 200 209 211 217 219 224 225 222 225 231 243 258 260 225 191 193 192 195 199 185 183 180 176 177 181 187 187 187 205 226 255 276 275
150 156 148 155 198 203 245 227 219 110 294 247 160 123 135 139 149 139 152 183 197 209 215 223 229 235 233 227 222 219 218 222 224 228 217 220 217 222 227 216 206 199 193 207 243 246 230 213 204 234 252 259 265 269
143 111 181 112 359 198 298 311 211 156 252 206 205 188 129 123 152 159 141 155 178 202 212 221 231 240 236 230 224 226 231 237 244 241 232 232 212 206 215 224 223 234 253 259 244 229 232 248 254 251 250 252 258 258
71 11 23 2 11 9 22 1 348 7 174 21 352 215 127 150 130 148 106 4 24 37 34 214 213 211 224 226 230 228 228 232 235 238 237 235 234 226 216 218 222 228 242 249 243 239 248 252 252 248 249 253 254 250
66 21 26 358 5 25 346 13 359 345 8 2 14 328 321 11 75 45 11 343 342 354 359 357 299 209 196 210 210 210 214 218 217 222 227 235 236 240 243 245 247 250 249 247 247 247 250 253 254 252 256 258 256 252
40 345 350 21 354 355 33 18 356 13 33 20 347 350 0 43 47 360 339 358 341 344 350 348 327 272 237 225 215 221 227 223 224 229 228 234 240 245 242 241 239 242 236 236 239 247 252 255 257 257 255 253 252 251
24 29 1 322 21 28 54 24 11 10 7 347 347 30 56 34 347 326 331 349 359 9 22 33 44 53 134 215 219 215 207 199 199 200 205 214 220 222 227 231 232 234 239 246 248 248 248 250 253 257 258 255 250 245
7 342 339 4 39 47 37 25 12 344 318 348 62 64 80 46 14 1 9 19 37 46 56 63 71 81 86 94 103 124 160 174 174 179 186 191 200 207 211 222 234 242 246 250 249 248 252 256 255 251 245 240 234 227
333 350 352 16 61 60 20 55 65 59 62 75 95 113 99 71 42 39 40 44 45 46 48 49 55 69 71 76 79 84 93 113 157 188 198 198 197 202 205 208 213 223 241 256 263 266 259 253 243 227 219 212 208 206
351 354 41 50 64 60 84 77 66 62 59 55 60 63 67 25 36 26 28 35 42 49 52 50 52 53 57 58 64 74 73 75 87 103 123 140 150 157 161 166 181 216 237 241 234 225 216 208 198 193 188 188 185 185
350 359 351 26 50 99 71 66 68 69 54 48 35 34 42 40 32 15 14 21 35 37 37 35 36 39 46 50 57 63 70 76 77 82 96 108 120 126 123 123 134 143 146 147 142 141 141 146 150 150 152 151 150 153
332 1 14 17 2 4 359 359 53 69 47 48 42 28 24 44 50 5 15 28 27 26 24 30 35 42 48 55 61 63 65 70 84 89 89 90 93 97 101 102 102 103 108 113 114 113 115 119 122 123 126 129 133 136